Regional Weather Roundup
Issued by NWS Grand Forks, ND

Home | Current Version | Previous Version | Text Only | Print | Product List | Glossary Off
Versions: 1 2 3 4 5 6 7 8 9 10 11 12 13 14 15 16 17 18 19 20 21 22 23 24 25 26 27 28 29 30 31 32 33 34 35 36 37 38 39 40 41 42 43 44 45 46 47 48 49 50

000
ASUS43 KFGF 241531
RWRFGF
PRAIRIE TO PINES  WEATHER ROUNDUP
NATIONAL WEATHER SERVICE EASTERN NORTH DAKOTA/GRAND FORKS ND
900 AM CST FRI FEB 24 2017

 **SATELLITE DATA USED TO AUGMENT SKY COVER AT AUTOMATED STATIONS**
 *****  WEATHER ACROSS EASTERN NORTH DAKOTA  *****

CITY           SKY/WX    TMP DP  RH WIND       PRES   REMARKS
GRAND FORKS    CLOUDY    18   5  57 NE9       30.15S WCI   7
GRAND FRKS AFB CLOUDY    17   7  66 NE7       30.15S WCI   7
DEVILS LAKE    FAIR      16  12  86 N14       30.12S WCI   1
FARGO          FAIR      20  12  71 N17       30.10F WCI   5
WAHPETON ARPT    N/A     19  10  68 N17G23    30.08S WCI   4
$$

 ***** WEATHER ACROSS CENTRAL AND WESTERN NORTH DAKOTA  *****

CITY           SKY/WX    TMP DP  RH WIND       PRES   REMARKS
BISMARCK       PTSUNNY   21  15  78 W7        30.15S WCI  12
MINOT          FAIR      22  11  62 NW5       30.15R WCI  16
JAMESTOWN      FAIR      20  16  84 N12       30.09S WCI   8
MINOT AFB      FAIR      17  11  80 W3        30.14S
GARRISON         N/A     19  15  84 NW3       30.13R
WILLISTON      CLOUDY    20  15  81 CALM      30.16R
DICKINSON      FAIR       8   6  92 CALM      30.09R
HETTINGER      FAIR      15  10  80 W3        30.11R
$$

 *****  OTHER AIRPORT OBSERVATIONS IN OUR AREA  *****

CITY           SKY/WX    TMP DP  RH WIND       PRES   REMARKS
WALHALLA       NOT AVBL
GRAFTON AIRPOR CLOUDY    14   7  73 N9        30.19S WCI   2
VALLEY CITY AR PTSUNNY   19  19 100 N8        30.11F WCI   9
CANDO          NOT AVBL
CAVALIER APRT    N/A     14   7  73 N8        30.17S WCI   3
GWINNER        FAIR      21  18  86 N13       30.09R WCI   9
SHEYENNE NWR     N/A     19  11  72 N8        29.95S WCI   9
ROLLA          FLURRIES  14  14 100 N10       30.12F WCI   1
 ***** THE ABOVE OBSERVATIONS ARE NON NWS ARE NOT QUALITY
       CONTROLLED AND MAY MIS-REPORT RAIN FOR SNOW...
$$

  *****  WEATHER ACROSS NORTHERN MINNESOTA  *****

CITY           SKY/WX    TMP DP  RH WIND       PRES   REMARKS
FLAG ISLAND    FAIR       7   1  78 NW8       30.11R WCI  -6
WARROAD        FAIR       7   1  78 NW8       30.12S WCI  -6
ROSEAU         FAIR       7   1  78 NW5       30.13S WCI  -2
HALLOCK        FAIR      14   9  79 N10       30.16S WCI   1
THF RVR FALLS  NOT AVBL
BAUDETTE       FAIR       6   1  80 NW6       30.08S WCI  -4
WASKISH        FAIR      10   7  85 NE5       30.06S WCI   2
CROOKSTON      CLOUDY    16   9  73 N10       30.15S WCI   3
STEPHEN NDAWN    N/A     12   9  85 N7          N/A  WCI   2
GREENBUSH NDAW   N/A      9   5  85 VRB3        N/A
$$
  *****  WEATHER ACROSS CENTRAL AND WEST MINNESOTA  *****

CITY           SKY/WX    TMP DP  RH WIND       PRES   REMARKS
FOSSTON        FAIR      12   7  79 N12       30.07S WCI  -2
BEMIDJI        FAIR      10   6  82 N9        30.03S WCI  -3
PARK RAPIDS    FAIR      12   3  67 N10       30.00S WCI  -1
ELBOW LAKE     FAIR      18   9  66 N15G21    30.02S WCI   4
WADENA         FAIR      14   7  73 N13       29.99S WCI   0
DETROIT LAKES  FAIR      16   9  73 N8        30.04S WCI   5
MOORHEAD       FAIR      19  10  68 N20       30.10S WCI   4
FERGUS FALLS   FAIR      18   9  68 N12G17    30.09S WCI   5
MORRIS MN      FAIR      19  10  68 N21G30    30.00R WCI   3
STAPLES        FAIR      14   7  73 N17       29.98S WCI  -3
$$
  *****  WEATHER ELSEWHERE ACROSS MINNESOTA  *****

CITY           SKY/WX    TMP DP  RH WIND       PRES   REMARKS
DULUTH         CLOUDY    16  10  77 N12       29.90F WCI   3
INTRNTL FALLS  FAIR      11   2  67 N8        30.04F WCI  -1
ELY            FAIR      10   1  67 NE6       29.96S WCI   1
CLOQUET        FAIR      16   9  73 N9        29.91S WCI   4
WHEATON        FAIR      19  10  68 N15G24    30.07F WCI   5
BRAINERD       FAIR      16   7  67 N10       29.96F WCI   4
HIBBING        FAIR      12   4  70 N12       29.96F WCI  -2
ALEXANDRIA     FAIR      17   9  70 N16       29.98R WCI   2
SAINT CLOUD    PTSUNNY   21  11  65 N15G26    29.92R WCI   8
MINNEAPOLIS    CLOUDY    25  15  66 N16G25    29.86R WCI  12
$$

  *****  WEATHER ACROSS SOUTH DAKOTA  *****

CITY           SKY/WX    TMP DP  RH WIND       PRES   REMARKS
SIOUX FALLS    CLOUDY    21  15  78 N17G24    29.92R WCI   7
BROOKINGS      FAIR      19  11  70 N25       29.93R WCI   1
WATERTOWN      FAIR      19   9  65 N25G32    29.97R WCI   1
HURON          FAIR      21  14  74 N21G26    30.05R WCI   5
SISSETON         N/A     20  13  74 N22       30.05S WCI   3
ABERDEEN       FAIR      21  12  68 N17       30.08S WCI   7
MITCHELL       FAIR      23  15  71 N22G29    30.02R WCI   8
PIERRE         FAIR      21  15  78 N12       30.11R WCI   9
MOBRIDGE       FAIR      21  13  71 NW7       30.09R WCI  12
RAPID CITY     CLOUDY    17  14  88 N7        30.07R WCI   8
$$

  *****  SOME WEATHER IN NEARBY STATES *****

CITY           SKY/WX    TMP DP  RH WIND       PRES   REMARKS
GLASGOW MT     CLOUDY    25  21  85 SE12      30.09R WCI  14
GREAT FALLS MT CLOUDY    24  19  81 CALM      29.98R
CHEYENNE WY    LGT SNOW  14  10  84 NE6       29.87R FOG     WCI   5
SCOTTSBLUFF NE CLOUDY    20  14  77 CALM      29.99R
OMAHA NE       LGT SNOW  27  21  78 N25G35    29.77R WCI  12
DES MOINES IA  LGT SNOW  33  31  92 N17G23    29.62R FOG     WCI  22
DAVENPORT IA   CLOUDY    37  36  96 NE16      29.47R FOG
CHICAGO IL     CLOUDY    39  37  92 N17       29.48F FOG
EAU CLAIRE WI  FRZ RAIN  28  24  85 N13G21    29.77R FOG     WCI  17
LA CROSSE WI   LGT SNOW  32  28  85 N10       29.69R FOG     WCI  24
$$

  *****  SOME NATIONAL WEATHER *****

CITY           SKY/WX    TMP DP  RH WIND       PRES   REMARKS
LA GUARDIA NY  FAIR      67  53  61 SW7       29.95S
RALEIGH NC     FAIR      66  58  75 S5        29.96F
ATLANTA GA     FAIR      66  58  75 SE6       29.93R
NEW ORLEANS LA PTSUNNY   71  63  75 S15       29.82R
OKLAHOMA CITY  FAIR      39  26  59 N25G35    29.87R
ALBUQUERQUE NM FAIR      33  15  47 W6        29.96R
SALT LAKE CITY FLURRIES  26  21  81 W14       30.03R WCI  14
LOS ANGELES CA FAIR      47  25  42 N6        30.15R
BOISE ID       NOT AVBL
SEATTLE WA     FLURRIES  35  29  78 SE7       30.14S
$$

*** WEATHER ACROSS MANITOBA...SASKATCHEWAN AND ONTARIO ***
                ***ONTARIO***

CITY           SKY/WX    TMP DP  RH WIND       PRES   REMARKS
GERALDTON      CLOUDY     0  -6  78 N10       30.04F WCI -17
THUNDER BAY    CLOUDY     9   0  66 NE7       30.06F WCI  -3
SIOUX LOOKOUT  MOSUNNY    3  -2  78 E6        30.09S WCI  -8
TORONTO        CLOUDY    39  37  93 E13       29.76R
BIG TROUT LK   SUNNY     -9 -15  77 N5        30.22R WCI -21
PICKLE LAKE    LGT SNOW  -2  -6  84 N5        30.10S WCI -12
DRYDEN         SUNNY      3   0  85 NE8       30.07S WCI -10
KENORA         MOSUNNY    5   0  78 N5        30.08S WCI  -4
$$
                *** MANITOBA***

CITY           SKY/WX    TMP DP  RH WIND       PRES   REMARKS
BRANDON        MOSUNNY   12   9  85 W5        30.17R WCI   4
DAUPHIN        SUNNY     12   9  85 SW2       30.19R
ISLAND LAKE    CRYSTALS  -9 -15  77 CALM      30.22S
PILOT MOUND      N/A     14  12  92 N10         N/A  WCI   1
THE PAS        PTCLDY     1  -4  78 CALM      30.19S
THOMPSON       MOSUNNY  -18 -24  76 VRB2      30.26S
WINNIPEG       MOSUNNY    7   1  78 N7        30.20S WCI  -5
LYNN LAKE      PTCLDY   -18 -24  76 CALM      30.17S
GILLAM         PTSUNNY  -11 -15  84 CALM      30.30F
$$
                ***SASKATCHEWAN***

CITY           SKY/WX    TMP DP  RH WIND       PRES   REMARKS
ESTEVAN        MOSUNNY   16  12  86 SW8       30.12S WCI   5
KINDERSLEY     MOCLDY    19  18  93 CALM      30.06R
LLOYDMINSTER   CLOUDY    14  14 100 N5        30.08R FOG     WCI   6
PRINCE ALBERT  CLOUDY     9   3  78 N3        30.11S
REGINA         CLOUDY    19  16  86 SW3       30.10S
YORKTON        MOSUNNY   16  10  79 S10       30.11F WCI   3
N. BATTLEFORD  CLOUDY    16  16 100 CALM      30.11S
LA RONGE       LGT SNOW   0  -4  85 NW5       30.14R WCI -10
SASKATOON      MOCLDY    14  12  92 E2        30.12S
SWIFT CURRENT  FLURRIES  23  21  93 S12       30.03R WCI  12
$$
NOTE: THESE ARE AUTOMATED STATIONS WITH LIMITED QUALITY CONTROL
      "FAIR" INDICATES FEW OR NO CLOUDS BELOW 12,000 FEET WITH NO
      SIGNIFICANT WEATHER AND/OR OBSTRUCTIONS TO VISIBILITY.
      SKY/WX - SKY CONDITION AND SIGNIFICANT WEATHER.
      TMP - AIR TEMPERATURE.    DP   - DEWPOINT TEMPERATURE.
      RH  - RELATIVE HUMIDITY.  PRES - PRESSURE.
      HX  - HEAT INDEX.         WCI  - WIND CHILL INDEX.
$



USA.gov is the U.S. government's official web portal to all federal, state and local government web resources and services.